Wetterdaten: aktuell Mittwoch, 24.01.2018 10:15
Datum Zeit Temp. A. Feuchte A. Luftdruck Regen Wind Richtung Richtung Windben
24.01.2018 10:15 2,6 C 87 % 1031,4 hPa 0,0 l/m 0,0 km/h S-SW 194 0,0 km/h
24.01.2018 10:10 2,3 C 87 % 1031,4 hPa 0,0 l/m 0,0 km/h S-SW 194 0,0 km/h
24.01.2018 10:05 2,2 C 87 % 1031,4 hPa 0,0 l/m 0,0 km/h S-SW 194 0,0 km/h
24.01.2018 10:00 2,0 C 87 % 1031,4 hPa 0,0 l/m 0,0 km/h S-SW 194 0,0 km/h
24.01.2018 09:55 1,8 C 88 % 1031,5 hPa 0,0 l/m 0,0 km/h S-SW 194 0,0 km/h
24.01.2018 09:50 1,8 C 88 % 1031,4 hPa 0,0 l/m 0,0 km/h S-SW 194 0,0 km/h
24.01.2018 09:45 1,8 C 88 % 1031,3 hPa 0,0 l/m 0,0 km/h S-SW 193 0,0 km/h
24.01.2018 09:40 1,7 C 87 % 1031,2 hPa 0,0 l/m 0,0 km/h S-SW 193 0,0 km/h
24.01.2018 09:35 1,6 C 87 % 1031,3 hPa 0,0 l/m 0,0 km/h S-SW 193 0,0 km/h
24.01.2018 09:30 1,6 C 87 % 1031,3 hPa 0,0 l/m 0,0 km/h S-SW 193 0,0 km/h
24.01.2018 09:25 1,7 C 87 % 1031,2 hPa 0,0 l/m 0,0 km/h S-SW 193 0,0 km/h
24.01.2018 09:20 1,8 C 88 % 1031,2 hPa 0,0 l/m 0,0 km/h S-SW 193 0,0 km/h
24.01.2018 09:15 1,7 C 90 % 1031,2 hPa 0,0 l/m 0,0 km/h W-NW 291 0,0 km/h
24.01.2018 09:10 1,2 C 90 % 1031,1 hPa 0,0 l/m 0,0 km/h W-NW 303 0,0 km/h
24.01.2018 09:05 0,7 C 91 % 1031,1 hPa 0,0 l/m 0,0 km/h NW 306 0,0 km/h
24.01.2018 09:00 0,3 C 92 % 1031,1 hPa 0,0 l/m 0,0 km/h NW 306 0,0 km/h
24.01.2018 08:55 -0,1 C 92 % 1031,2 hPa 0,0 l/m 0,0 km/h NW 306 0,0 km/h
24.01.2018 08:50 -0,6 C 92 % 1031,1 hPa 0,0 l/m 0,0 km/h NW 306 0,0 km/h
24.01.2018 08:45 -0,6 C 92 % 1031,1 hPa 0,0 l/m 0,0 km/h NW 306 0,0 km/h
24.01.2018 08:40 -0,6 C 92 % 1031,2 hPa 0,0 l/m 0,0 km/h NW 306 0,0 km/h
24.01.2018 08:35 -0,7 C 93 % 1031,2 hPa 0,0 l/m 0,0 km/h NW 306 0,0 km/h
24.01.2018 08:30 -0,7 C 93 % 1031,2 hPa 0,0 l/m 0,0 km/h NW 306 0,0 km/h
24.01.2018 08:25 -0,7 C 93 % 1031,1 hPa 0,0 l/m 0,0 km/h N-NW 340 0,0 km/h
24.01.2018 08:20 -0,9 C 93 % 1031,2 hPa 0,0 l/m 0,0 km/h N-NW 336 0,0 km/h
24.01.2018 08:15 -1,2 C 93 % 1031,3 hPa 0,0 l/m 0,0 km/h N 1 0,0 km/h
24.01.2018 08:10 -1,1 C 93 % 1031,3 hPa 0,0 l/m 0,0 km/h N-NO 21 0,0 km/h
24.01.2018 08:05 -1,2 C 93 % 1031,3 hPa 0,0 l/m 0,0 km/h N 352 0,0 km/h
24.01.2018 08:00 -1,5 C 93 % 1031,2 hPa 0,0 l/m 0,0 km/h N 352 0,0 km/h
24.01.2018 07:55 -1,7 C 93 % 1031,2 hPa 0,0 l/m 0,0 km/h N 352 0,0 km/h
24.01.2018 07:50 -1,7 C 92 % 1031,1 hPa 0,0 l/m 0,0 km/h N 352 0,0 km/h
24.01.2018 07:45 -1,7 C 92 % 1031,0 hPa 0,0 l/m 0,0 km/h N 352 0,0 km/h
24.01.2018 07:40 -1,6 C 93 % 1031,0 hPa 0,0 l/m 0,0 km/h N 352 0,0 km/h
24.01.2018 07:35 -1,7 C 93 % 1031,1 hPa 0,0 l/m 0,0 km/h N 352 0,0 km/h
24.01.2018 07:30 -1,9 C 93 % 1031,1 hPa 0,0 l/m 0,0 km/h N 352 0,0 km/h
24.01.2018 07:25 -2,2 C 92 % 1031,1 hPa 0,0 l/m 0,0 km/h N 352 0,0 km/h
24.01.2018 07:20 -2,1 C 92 % 1031,1 hPa 0,0 l/m 0,0 km/h N 352 0,0 km/h
24.01.2018 07:15 -2,1 C 92 % 1031,0 hPa 0,0 l/m 0,0 km/h N 352 0,0 km/h
24.01.2018 07:10 -2,0 C 92 % 1031,0 hPa 0,0 l/m 0,0 km/h N 352 0,0 km/h
24.01.2018 07:05 -1,9 C 92 % 1031,1 hPa 0,0 l/m 0,0 km/h N 352 0,0 km/h
24.01.2018 07:00 -1,9 C 92 % 1031,1 hPa 0,0 l/m 0,0 km/h N 352 0,0 km/h
24.01.2018 06:55 -2,0 C 91 % 1031,1 hPa 0,0 l/m 0,0 km/h N 352 0,0 km/h
24.01.2018 06:50 -1,8 C 92 % 1031,0 hPa 0,0 l/m 0,0 km/h N 352 0,0 km/h
24.01.2018 06:45 -1,8 C 92 % 1030,9 hPa 0,0 l/m 0,0 km/h N 352 0,0 km/h
24.01.2018 06:40 -1,8 C 92 % 1030,9 hPa 0,0 l/m 0,0 km/h N 352 0,0 km/h
24.01.2018 06:35 -1,8 C 91 % 1031,0 hPa 0,0 l/m 0,0 km/h N 352 0,0 km/h
24.01.2018 06:30 -1,8 C 91 % 1030,8 hPa 0,0 l/m 0,0 km/h N 352 0,0 km/h
24.01.2018 06:25 -1,8 C 91 % 1030,8 hPa 0,0 l/m 0,0 km/h N 352 0,0 km/h
24.01.2018 06:20 -1,6 C 91 % 1030,8 hPa 0,0 l/m 0,0 km/h N 352 0,0 km/h
24.01.2018 06:15 -1,6 C 92 % 1030,7 hPa 0,0 l/m 0,0 km/h N 352 0,0 km/h
24.01.2018 06:10 -1,7 C 92 % 1030,7 hPa 0,0 l/m 0,0 km/h N 351 0,0 km/h
24.01.2018 06:05 -1,8 C 91 % 1030,6 hPa 0,0 l/m 0,0 km/h N 350 0,0 km/h
24.01.2018 06:00 -1,7 C 92 % 1030,6 hPa 0,0 l/m 0,0 km/h N 350 0,0 km/h
24.01.2018 05:55 -1,5 C 92 % 1030,6 hPa 0,0 l/m 0,0 km/h N 350 0,0 km/h
24.01.2018 05:50 -1,7 C 92 % 1030,5 hPa 0,0 l/m 0,0 km/h N 350 0,0 km/h
24.01.2018 05:45 -1,9 C 92 % 1030,5 hPa 0,0 l/m 0,0 km/h N 354 0,0 km/h
24.01.2018 05:40 -2,0 C 91 % 1030,4 hPa 0,0 l/m 0,0 km/h N-NW 348 0,0 km/h
24.01.2018 05:35 -1,9 C 91 % 1030,5 hPa 0,0 l/m 0,0 km/h NW 323 0,0 km/h
24.01.2018 05:30 -1,8 C 91 % 1030,5 hPa 0,0 l/m 0,0 km/h NW 323 0,0 km/h
24.01.2018 05:25 -1,6 C 91 % 1030,5 hPa 0,0 l/m 0,0 km/h NW 323 0,0 km/h
24.01.2018 05:20 -1,6 C 91 % 1030,5 hPa 0,0 l/m 0,0 km/h NW 323 0,0 km/h
24.01.2018 05:15 -1,4 C 91 % 1030,5 hPa 0,0 l/m 0,0 km/h NW 323 0,0 km/h
24.01.2018 05:10 -1,3 C 91 % 1030,5 hPa 0,0 l/m 0,0 km/h N-NW 327 0,0 km/h
24.01.2018 05:05 -1,2 C 91 % 1030,5 hPa 0,0 l/m 0,0 km/h N-NW 327 0,0 km/h
24.01.2018 05:00 -1,2 C 92 % 1030,5 hPa 0,0 l/m 0,0 km/h NW 326 0,0 km/h
24.01.2018 04:55 -1,3 C 92 % 1030,5 hPa 0,0 l/m 0,0 km/h N 354 0,0 km/h
24.01.2018 04:50 -1,4 C 92 % 1030,5 hPa 0,0 l/m 0,0 km/h N-NO 12 0,0 km/h
24.01.2018 04:45 -1,5 C 92 % 1030,6 hPa 0,0 l/m 0,0 km/h N 2 0,0 km/h
24.01.2018 04:40 -1,7 C 92 % 1030,6 hPa 0,0 l/m 0,0 km/h N-NW 348 0,0 km/h
24.01.2018 04:35 -1,7 C 92 % 1030,6 hPa 0,0 l/m 0,0 km/h N-NW 348 0,0 km/h
24.01.2018 04:30 -1,7 C 91 % 1030,6 hPa 0,0 l/m 0,0 km/h N-NW 348 0,0 km/h
24.01.2018 04:25 -1,4 C 91 % 1030,6 hPa 0,0 l/m 0,0 km/h N-NW 348 0,0 km/h
24.01.2018 04:20 -1,4 C 91 % 1030,5 hPa 0,0 l/m 0,0 km/h N-NW 348 0,0 km/h
24.01.2018 04:15 -1,3 C 91 % 1030,5 hPa 0,0 l/m 0,0 km/h N-NW 348 0,0 km/h
24.01.2018 04:10 -1,3 C 91 % 1030,4 hPa 0,0 l/m 0,0 km/h N-NW 348 0,0 km/h
24.01.2018 04:05 -1,3 C 91 % 1030,5 hPa 0,0 l/m 0,0 km/h N-NW 348 0,0 km/h
24.01.2018 04:00 -1,4 C 91 % 1030,5 hPa 0,0 l/m 0,0 km/h N-NW 348 0,0 km/h
24.01.2018 03:55 -1,3 C 91 % 1030,4 hPa 0,0 l/m 0,0 km/h W-SW 250 0,0 km/h
24.01.2018 03:50 -1,4 C 91 % 1030,5 hPa 0,0 l/m 0,0 km/h SW 226 0,0 km/h
24.01.2018 03:45 -1,2 C 90 % 1030,5 hPa 0,0 l/m 0,0 km/h SW 226 0,0 km/h
24.01.2018 03:40 -1,0 C 91 % 1030,4 hPa 0,0 l/m 0,0 km/h SW 226 0,0 km/h
24.01.2018 03:35 -0,8 C 92 % 1030,4 hPa 0,0 l/m 0,0 km/h N 354 0,0 km/h
24.01.2018 03:30 -1,2 C 91 % 1030,4 hPa 0,0 l/m 0,0 km/h N 353 1,6 km/h
24.01.2018 03:25 -1,4 C 91 % 1030,4 hPa 0,0 l/m 0,0 km/h N 350 0,0 km/h
24.01.2018 03:20 -1,2 C 91 % 1030,5 hPa 0,0 l/m 0,0 km/h N 1 0,0 km/h
24.01.2018 03:15 -1,1 C 91 % 1030,5 hPa 0,0 l/m 0,0 km/h N-NW 339 0,0 km/h
24.01.2018 03:10 -1,2 C 90 % 1030,6 hPa 0,0 l/m 0,0 km/h N-NW 339 0,0 km/h
24.01.2018 03:05 -1,0 C 90 % 1030,6 hPa 0,0 l/m 0,0 km/h N-NW 339 0,0 km/h
24.01.2018 03:00 -1,0 C 90 % 1030,5 hPa 0,0 l/m 0,0 km/h N-NW 339 0,0 km/h
24.01.2018 02:55 -0,9 C 90 % 1030,6 hPa 0,0 l/m 0,0 km/h N-NW 339 0,0 km/h
24.01.2018 02:50 -0,8 C 90 % 1030,6 hPa 0,0 l/m 0,0 km/h N-NW 339 0,0 km/h
24.01.2018 02:45 -0,7 C 90 % 1030,6 hPa 0,0 l/m 0,0 km/h N-NW 339 0,0 km/h
24.01.2018 02:40 -0,6 C 91 % 1030,7 hPa 0,0 l/m 0,0 km/h N-NW 339 0,0 km/h
24.01.2018 02:35 -0,7 C 91 % 1030,7 hPa 0,0 l/m 0,0 km/h N-NW 339 0,0 km/h
24.01.2018 02:30 -0,8 C 90 % 1030,7 hPa 0,0 l/m 0,0 km/h N-NW 336 0,0 km/h
24.01.2018 02:25 -0,7 C 91 % 1030,8 hPa 0,0 l/m 0,0 km/h N-NW 336 0,0 km/h
24.01.2018 02:20 -0,8 C 90 % 1030,8 hPa 0,0 l/m 0,0 km/h N-NW 336 0,0 km/h
24.01.2018 02:15 -0,7 C 91 % 1030,7 hPa 0,0 l/m 0,0 km/h N-NW 336 0,0 km/h
_ Min-Zeit 07:25 14:20 11:25 - 11:00 - - 11:00
Minimum _ -2,2 C 59 % 1025,9 hPa - 0,0 km/h - - 0,0 km/h
_ Max-Zeit 14:20 07:30 09:55 11:00 15:35 - - 15:35
Maximum _ 8,1 C 93 % 1031,5 hPa 0,0 l/m 2,5 km/h
N
- - 22,5 km/h
N
Durchschnitt _ 2,5 C 81 % 1029,3 hPa #0,0 l/m 0,0 km/h NO - 0,6 km/h